Waarnemingen

Advertentie
Mijn weer
Maastricht, Nederland (6380): temperatuur & dauwpunt: 11.10.2018 08:00:00 - 17.10.2018 08:00:00 (CEST)Maastricht, Nederland (6380): temperatuur 5cm: 11.10.2018 08:00:00 - 17.10.2018 08:00:00 (CEST)Maastricht, Nederland (6380): windsnelheid & windstoten: 11.10.2018 08:00:00 - 17.10.2018 08:00:00 (CEST)Maastricht, Nederland (6380): windrichting: 11.10.2018 08:00:00 - 17.10.2018 08:00:00 (CEST)Maastricht, Nederland (6380): luchtdruk: 11.10.2018 08:00:00 - 17.10.2018 08:00:00 (CEST)Maastricht, Nederland (6380): zicht: 11.10.2018 08:00:00 - 17.10.2018 08:00:00 (CEST)Maastricht, Nederland (6380): neerslag: 11.10.2018 08:00:00 - 17.10.2018 08:00:00 (CEST)
Datum & Tijd tt [°C] td [°C] tt 5cm [°C] ff [km/u] ff [kn] fx [km/u] fx [kn] dd ppp [hPa] vv [km] rr [mm]
17.10.2018 08:00:00 11,0 8,0 9,3 9 5 - - ZZW 1018,8 10 -
17.10.2018 07:00:00 11,5 8,7 10,6 13 7 18 10 ZZW 1018,7 10 0,0
17.10.2018 06:00:00 11,6 8,8 10,8 13 7 18 10 ZW 1018,5 10 0,0
17.10.2018 05:00:00 11,3 8,2 10,1 8 4 11 6 WZW 1018,2 10 0,0
17.10.2018 04:00:00 12,8 8,4 10,9 13 7 14 8 ZZW 1018,1 10 0,0
17.10.2018 03:00:00 13,4 8,7 12,2 9 5 14 8 Z 1018,2 10 0,0
17.10.2018 02:00:00 14,2 8,1 11,2 11 6 14 8 ZZO 1018,1 10 0,0
17.10.2018 01:00:00 16,3 8,0 13,3 13 7 18 10 Z 1018,4 10 0,0
17.10.2018 00:00:00 16,5 7,8 12,3 9 5 14 8 ZZO 1018,7 10 0,0
16.10.2018 23:00:00 15,4 8,2 11,4 8 4 14 8 ZZO 1019,1 10 0,0
16.10.2018 22:00:00 17,7 8,8 15,0 9 5 36 19 ZZO 1019,1 10 0,0
16.10.2018 21:00:00 18,2 8,7 14,5 8 4 32 18 ZO 1018,9 10 0,0
16.10.2018 20:00:00 18,4 9,1 15,0 11 6 14 8 OZO 1018,8 10 0,0
16.10.2018 19:00:00 20,1 9,9 16,8 8 4 22 12 O 1018,3 10 0,0
16.10.2018 18:00:00 22,0 10,4 20,7 9 5 14 8 ONO 1017,9 10 0,0
16.10.2018 17:00:00 23,9 10,6 23,0 8 4 11 6 NO 1017,8 10 0,0
16.10.2018 16:00:00 23,5 11,9 23,4 11 6 14 8 NO 1018,0 10 0,0
16.10.2018 15:00:00 24,3 10,8 25,0 9 5 22 12 NO 1018,0 10 0,0
16.10.2018 14:00:00 24,6 10,2 26,0 4 2 11 6 - 1018,3 10 0,0
16.10.2018 13:00:00 23,0 10,8 24,3 5 3 18 10 OZO 1018,5 10 0,0
16.10.2018 12:00:00 20,7 11,1 22,3 5 3 7 4 OZO 1018,6 10 0,0
16.10.2018 11:00:00 17,8 10,4 18,6 5 3 22 12 Z 1018,8 10 0,0
16.10.2018 10:00:00 15,3 10,0 14,4 5 3 7 4 Z 1018,7 10 0,0
16.10.2018 09:00:00 11,0 8,6 8,0 2 1 4 2 Z 1018,5 10 0,0
16.10.2018 08:00:00 9,6 7,1 7,1 5 3 14 8 WZW 1018,2 10 0,0
16.10.2018 07:00:00 10,9 7,6 7,2 9 5 11 6 Z 1017,5 10 0,0
16.10.2018 06:00:00 11,1 7,7 6,0 9 5 7 4 Z 1017,3 10 0,0
16.10.2018 05:00:00 11,2 7,7 6,6 9 5 7 4 Z 1017,0 10 0,0
16.10.2018 04:00:00 11,2 8,0 6,7 9 5 11 6 Z 1016,9 10 0,0
16.10.2018 03:00:00 12,0 8,4 6,7 9 5 7 4 Z 1016,7 10 0,0
16.10.2018 02:00:00 11,7 8,5 6,1 9 5 11 6 ZZO 1016,3 10 0,0
16.10.2018 01:00:00 12,0 8,8 5,7 9 5 7 4 Z 1016,0 10 0,0
16.10.2018 00:00:00 13,0 8,7 6,3 8 4 7 4 Z 1015,6 10 0,0
15.10.2018 23:00:00 14,0 9,3 7,2 8 4 7 4 ZZO 1015,5 10 0,0
15.10.2018 22:00:00 14,8 9,2 7,7 9 5 11 6 ZZO 1015,2 10 0,0
15.10.2018 21:00:00 15,2 9,9 8,5 5 3 7 4 ZZO 1014,8 10 0,0
15.10.2018 20:00:00 16,3 9,9 10,1 8 4 14 8 ZZO 1014,5 10 0,0
15.10.2018 19:00:00 19,7 9,6 13,1 4 2 11 6 ZW 1014,1 10 0,0
15.10.2018 18:00:00 22,3 9,4 21,3 9 5 25 14 WZW 1013,3 10 0,0
15.10.2018 17:00:00 23,4 8,8 23,7 18 10 25 14 ZW 1012,8 10 0,0
15.10.2018 16:00:00 24,4 9,7 25,0 15 8 29 16 Z 1012,4 10 0,0
15.10.2018 15:00:00 23,8 10,6 24,8 11 6 22 12 Z 1012,5 10 0,0
15.10.2018 14:00:00 23,6 10,2 25,0 16 9 25 14 ZZW 1012,5 10 0,0
15.10.2018 13:00:00 23,5 10,1 24,6 21 11 29 16 Z 1012,7 10 0,0
15.10.2018 12:00:00 21,9 9,6 22,9 18 10 25 14 Z 1012,6 10 0,0
15.10.2018 11:00:00 19,7 9,7 19,1 16 9 25 14 Z 1012,1 10 0,0
15.10.2018 10:00:00 19,8 9,1 19,8 16 9 25 14 Z 1011,9 10 0,0
15.10.2018 09:00:00 18,3 9,2 17,1 18 10 22 12 Z 1011,4 10 0,0
15.10.2018 08:00:00 18,0 8,8 16,9 16 9 25 14 Z 1011,0 10 0,0
15.10.2018 07:00:00 17,9 8,1 16,5 13 7 22 12 ZZO 1010,4 10 0,0
15.10.2018 06:00:00 18,1 7,7 16,7 13 7 18 10 Z 1009,9 10 0,0
15.10.2018 05:00:00 17,7 8,1 16,6 16 9 18 10 ZZW 1009,4 10 0,0
15.10.2018 04:00:00 18,9 7,6 17,5 16 9 25 14 Z 1009,5 10 0,0
15.10.2018 03:00:00 18,7 7,5 17,5 24 13 29 16 Z 1009,5 10 0,0
15.10.2018 02:00:00 18,7 7,1 16,8 18 10 25 14 Z 1009,5 10 0,0
15.10.2018 01:00:00 17,9 7,1 15,9 15 8 18 10 Z 1009,3 10 0,0
15.10.2018 00:00:00 18,1 7,0 15,9 15 8 18 10 Z 1009,0 10 0,0
14.10.2018 23:00:00 18,5 7,5 14,9 9 5 32 18 Z 1009,1 10 0,0
14.10.2018 22:00:00 18,4 8,6 13,9 9 5 29 16 ZZO 1008,7 10 0,0
14.10.2018 21:00:00 18,0 9,9 15,1 9 5 14 8 ZZO 1008,4 10 0,0
14.10.2018 20:00:00 18,6 9,8 15,9 8 4 11 6 ZO 1008,5 10 0,0
14.10.2018 19:00:00 20,9 9,7 16,6 8 4 18 10 ZZO 1008,1 10 0,0
14.10.2018 18:00:00 23,3 9,8 21,8 15 8 29 16 Z 1007,5 10 0,0
14.10.2018 17:00:00 24,4 10,1 23,7 24 13 40 21 Z 1007,3 10 0,0
14.10.2018 16:00:00 25,5 7,8 25,3 26 14 50 27 Z 1007,4 10 0,0
14.10.2018 15:00:00 25,2 7,4 25,6 31 17 58 31 Z 1007,5 10 0,0
14.10.2018 14:00:00 25,0 7,4 25,6 28 15 50 27 Z 1007,9 10 0,0
14.10.2018 13:00:00 24,6 8,5 25,4 28 15 43 23 Z 1008,6 10 0,0
14.10.2018 12:00:00 22,7 9,2 23,3 21 11 36 19 Z 1009,1 10 0,0
14.10.2018 11:00:00 21,1 10,9 21,3 22 12 36 19 ZZW 1009,5 10 0,0
14.10.2018 10:00:00 19,0 11,1 18,4 26 14 32 18 Z 1009,8 10 0,0
14.10.2018 09:00:00 17,7 11,3 16,1 18 10 25 14 Z 1009,9 10 0,0
14.10.2018 08:00:00 17,2 11,1 15,0 13 7 22 12 Z 1009,7 10 0,0
14.10.2018 07:00:00 17,2 11,0 15,5 18 10 25 14 Z 1009,9 10 0,0
14.10.2018 06:00:00 17,8 11,1 16,4 15 8 22 12 Z 1009,9 10 0,0
14.10.2018 05:00:00 17,6 11,2 15,7 16 9 25 14 ZZO 1010,3 10 0,0
14.10.2018 04:00:00 17,4 11,3 15,5 15 8 18 10 ZZO 1011,1 10 0,0
14.10.2018 03:00:00 18,3 11,3 16,2 11 6 18 10 ZZO 1011,9 10 0,0
14.10.2018 02:00:00 18,4 11,2 16,2 13 7 18 10 Z 1012,4 10 0,0
14.10.2018 01:00:00 17,8 11,2 14,4 9 5 14 8 ZO 1013,3 10 0,0
14.10.2018 00:00:00 18,3 11,3 14,4 9 5 14 8 ZO 1013,7 10 0,0
13.10.2018 23:00:00 17,9 11,0 13,7 8 4 11 6 ZO 1013,9 10 0,0
13.10.2018 22:00:00 19,1 10,9 13,9 8 4 14 8 ZO 1013,9 10 0,0
13.10.2018 21:00:00 19,6 11,2 17,8 13 7 22 12 ZO 1014,0 10 0,0
13.10.2018 20:00:00 21,1 11,6 18,6 15 8 18 10 ZO 1014,4 10 0,0
13.10.2018 19:00:00 21,3 11,8 19,4 13 7 18 10 ZO 1014,6 10 0,0
13.10.2018 18:00:00 24,4 12,0 23,2 11 6 25 14 ZZO 1014,6 10 0,0
13.10.2018 17:00:00 25,9 11,5 25,2 18 10 36 19 Z 1015,1 10 0,0
13.10.2018 16:00:00 26,2 12,6 26,5 21 11 40 21 Z 1015,7 10 0,0
13.10.2018 15:00:00 26,7 12,3 27,3 22 12 40 21 Z 1016,1 10 0,0
13.10.2018 14:00:00 26,7 13,5 28,2 18 10 29 16 Z 1017,0 10 0,0
13.10.2018 13:00:00 25,6 13,3 26,4 18 10 32 18 Z 1018,0 10 0,0
13.10.2018 12:00:00 23,8 14,7 24,9 18 10 25 14 Z 1018,5 10 0,0
13.10.2018 11:00:00 22,2 14,4 22,7 18 10 25 14 Z 1018,9 10 0,0
13.10.2018 10:00:00 20,1 13,7 19,8 13 7 18 10 Z 1019,3 10 0,0
13.10.2018 09:00:00 18,2 13,1 17,3 11 6 18 10 Z 1019,3 10 0,0
13.10.2018 08:00:00 17,3 12,7 16,0 11 6 18 10 Z 1019,4 10 0,0
13.10.2018 07:00:00 17,8 12,9 16,3 13 7 18 10 Z 1019,5 10 0,0
13.10.2018 06:00:00 18,0 13,0 16,7 13 7 18 10 Z 1019,9 10 0,0
13.10.2018 05:00:00 17,8 13,1 16,1 15 8 18 10 Z 1020,1 10 0,0
13.10.2018 04:00:00 18,7 13,0 17,4 13 7 22 12 Z 1019,9 10 0,0
13.10.2018 03:00:00 18,9 13,0 17,8 16 9 22 12 Z 1019,7 10 0,0
13.10.2018 02:00:00 19,7 13,0 18,3 16 9 25 14 Z 1019,7 10 0,0
13.10.2018 01:00:00 19,5 13,1 18,0 15 8 22 12 Z 1019,7 10 0,0
13.10.2018 00:00:00 19,6 13,2 18,1 15 8 18 10 Z 1020,0 10 0,0
12.10.2018 23:00:00 20,3 13,6 18,4 13 7 18 10 Z 1020,3 10 0,0
12.10.2018 22:00:00 19,6 14,0 18,1 15 8 25 14 Z 1020,2 10 0,0
12.10.2018 21:00:00 20,6 14,3 18,9 15 8 22 12 Z 1020,0 10 0,0
12.10.2018 20:00:00 21,3 14,5 19,7 13 7 22 12 ZZO 1019,7 10 0,0
12.10.2018 19:00:00 21,7 14,6 19,9 11 6 18 10 ZZO 1019,3 10 0,0
12.10.2018 18:00:00 22,8 14,7 21,8 16 9 32 18 Z 1018,9 10 0,0
12.10.2018 17:00:00 24,2 14,2 24,1 21 11 32 18 Z 1018,8 10 0,0
12.10.2018 16:00:00 24,6 14,6 25,0 22 12 43 23 Z 1018,9 10 0,0
12.10.2018 15:00:00 24,3 14,4 24,7 28 15 40 21 ZZW 1018,8 10 0,0
12.10.2018 14:00:00 24,2 14,5 25,3 16 9 29 16 ZZW 1018,8 10 0,0
12.10.2018 13:00:00 22,9 14,2 23,4 21 11 32 18 Z 1018,9 10 0,0
12.10.2018 12:00:00 22,1 14,7 23,0 21 11 32 18 Z 1018,9 10 0,0
12.10.2018 11:00:00 20,4 13,8 20,9 18 10 25 14 Z 1019,1 10 0,0
12.10.2018 10:00:00 17,4 13,4 16,5 13 7 22 12 Z 1019,0 10 0,0
12.10.2018 09:00:00 16,3 12,5 14,3 13 7 36 19 Z 1018,4 10 0,0
12.10.2018 08:00:00 14,8 12,1 12,1 11 6 14 8 Z 1017,6 10 0,0
12.10.2018 07:00:00 15,5 12,1 14,2 15 8 25 14 Z 1016,8 10 0,0
12.10.2018 06:00:00 16,0 12,3 14,4 13 7 18 10 Z 1016,3 10 0,0
12.10.2018 05:00:00 16,2 12,7 15,1 18 10 22 12 ZZW 1015,5 10 0,0
12.10.2018 04:00:00 17,1 13,0 16,3 21 11 25 14 ZZW 1014,8 10 0,0
12.10.2018 03:00:00 17,2 12,7 16,2 21 11 25 14 ZZW 1014,6 10 0,0
12.10.2018 02:00:00 17,9 12,3 16,1 18 10 29 16 ZW 1013,9 10 0,0
12.10.2018 01:00:00 18,7 11,7 17,5 24 13 32 18 Z 1013,4 10 0,0
12.10.2018 00:00:00 18,3 11,5 16,9 15 8 25 14 Z 1012,6 10 0,0
11.10.2018 23:00:00 18,2 11,6 16,2 15 8 18 10 ZZO 1012,6 10 0,0
11.10.2018 22:00:00 18,5 11,6 16,4 13 7 25 14 ZZO 1012,5 10 0,0
11.10.2018 21:00:00 18,4 11,7 16,4 13 7 22 12 ZO 1012,6 10 0,0
11.10.2018 20:00:00 19,9 12,0 17,9 13 7 22 12 ZZO 1012,3 10 0,0
11.10.2018 19:00:00 21,1 11,8 19,1 13 7 32 18 ZZO 1011,8 10 0,0
11.10.2018 18:00:00 22,5 12,0 21,6 22 12 29 16 Z 1011,1 10 0,0
11.10.2018 17:00:00 23,9 12,7 23,9 18 10 36 19 ZO 1010,8 10 0,0
11.10.2018 16:00:00 24,3 12,7 24,9 21 11 32 18 Z 1010,7 10 0,0
11.10.2018 15:00:00 24,0 12,3 25,0 21 11 32 18 Z 1011,0 10 0,0
11.10.2018 14:00:00 22,3 13,6 21,5 16 9 22 12 ZO 1011,4 10 0,0
11.10.2018 13:00:00 20,4 13,2 20,5 11 6 29 16 ZO 1011,6 10 0,0
11.10.2018 12:00:00 18,8 13,5 18,2 9 5 11 6 ZO 1012,3 10 0,0
11.10.2018 11:00:00 18,4 13,3 18,4 8 4 25 14 ZO 1012,5 10 0,0
11.10.2018 10:00:00 17,8 12,5 16,7 11 6 18 10 Z 1012,5 10 0,0
11.10.2018 09:00:00 16,7 11,9 15,9 16 9 22 12 ZZW 1012,1 10 0,0
11.10.2018 08:00:00 15,6 11,5 12,3 9 5 14 8 Z 1011,4 10 0,0

tt = temperatuur
td = dauwpunt
tt 5cm = temperatuur 5cm
ff = windsnelheid
fx = windstoten
dd = windrichting
ppp = luchtdruk
vv = zicht
rr = neerslag

Weerstations in de omgeving